Hourly Data Report for October 13, 2016

All times are specified in Local Standard Time (LST). Add 1 hour to adjust for Daylight Saving Time where and when it is observed.

SAINT JOHN A
NEW BRUNSWICK

45°18'58.000" N
65°53'24.000" W
108.80 m
8104901
71609
YSJ

Download Data

Hourly Data (October 2016)
Hourly Data Report for October 13, 2016
Temp Definition
°C
Dew Point Temp Definition
°C
Rel Hum Definition
%
Wind Dir Definition
10's deg

Wind Spd Definition
km/h
Visibility Definition
km
Stn Press Definition
kPa
Hmdx Definition


Wind Chill Definition


Weather Definition


TIME
00:00 Legend Double Dagger 10.3 10.3 100 17 12 12.9 101.23     LegendNANA
01:00 Legend Double Dagger 10.6 10.6 100 16 13 12.9 101.14     LegendNANA
02:00
03:00 Legend Double Dagger 10.4 10.4 100 17 11 24.1 101.02     LegendNANA
04:00 Legend Double Dagger 10.4 10.4 100 16 8 24.1 100.98     LegendNANA
05:00 Legend Double Dagger 10.3 10.3 100 19 10 19.3 100.94     Cloudy
06:00 Legend Double Dagger 10.0 10.0 100 16 12 24.1 100.93     LegendNANA
07:00 Legend Double Dagger 10.3 10.3 100 17 10 24.1 100.90     LegendNANA
08:00 Legend Double Dagger 11.3 11.3 100 17 13 24.1 100.89     Mostly Cloudy
09:00 Legend Double Dagger 13.1 11.7 91 19 19 24.1 100.87     LegendNANA
10:00 Legend Double Dagger 13.3 11.9 91 19 15 24.1 100.80     LegendNANA
11:00 Legend Double Dagger 15.6 12.0 79 18 17 24.1 100.72     Mostly Cloudy
12:00 Legend Double Dagger 16.7 11.3 70 17 27 24.1 100.63     LegendNANA
13:00 Legend Double Dagger 16.8 11.2 69 20 34 24.1 100.53     LegendNANA
14:00 Legend Double Dagger 17.2 12.0 71 20 28 24.1 100.44     Mainly Clear
15:00 Legend Double Dagger 17.2 12.2 72 21 27 24.1 100.38     LegendNANA
16:00 Legend Double Dagger 16.6 12.2 75 21 25 24.1 100.31     LegendNANA
17:00 Legend Double Dagger 15.7 12.1 79 21 23 24.1 100.30     Mostly Cloudy
18:00 Legend Double Dagger 14.1 13.0 93 20 10 24.1 100.28     LegendNANA
19:00 Legend Double Dagger 14.1 13.0 93 21 12 24.1 100.26     LegendNANA
20:00 Legend Double Dagger 14.2 13.3 94 21 13 24.1 100.23     Cloudy
21:00 Legend Double Dagger 13.5 13.4 99 19 13 24.1 100.19     LegendNANA
22:00 Legend Double Dagger 12.4 12.4 100 22 10 24.1 100.16     LegendNANA
23:00 Legend Double Dagger 12.9 12.9 100 21 11 24.1 100.09     Mostly Cloudy

Notes on Data Quality.

Legend

  • E = Estimated
  • M = Missing
  • NA = Not Available
  • ‡ = Partner data that is not subject to review by the National Climate Archives
Date modified: